CZ-2C R/B (43532 NORAD) Tracking and Keplerian Element Data

This shows tracking and keplerian element data for the satellite.

Feedback or suggestion? Click here.




ElementValue
Catalog43532
NameCZ-2C R/B
Epoch Orbit460
Epoch Day219.95172806
Epoch Year2018
RAAN293.6325
Inclination98.0538
Eccentricity0.0271327
Argument of Perigee64.6693
Mean Anonmoly298.2418
Mean Motion15.49560832
Decay Rate0.00052686
L11 43532U 18056D 18219.95172806 .00052686 29303-5 19370-3 0 9998
L22 43532 98.0538 293.6325 0271327 64.6693 298.2418 15.49560832 4605



Live tracking and technical data element details for CZ-2C R/B (NORAD 43532). CZ-2C R/B can be tracked NOW for your location showing map with azimuth and elevation plus other details from your city location.







IsCatalogInMostPopularTable: catalog: 43532, numindb: 501
Update: records affected: 1



GetName: 43532 CZ-2C R/B

Hit Count: updated at: Thu, 16 Apr 2026 05:53:36 GMT